This demonstration page uses our WeatherBlox Daily Observations layout. Learn more.

Left ArrowRight Arrow

40.92945, -100.16068

Hourly Observations for August 31, 2020

Temp ( °F °C ) Dew Point ( °F °C ) Humidity (%) Winds ( mph kmh ) Pressure ( in mb ) Visibility ( mi km ) Precip ( " mm )
12:15 am 00:15 Partly Cloudy 71 21.5 66 18.7 84 84 NNW 14 22 29.66 1004 10 16.0934 0 0
12:35 am 00:35 Mostly Cloudy 70 20.9 58 14.3 66 66 N 25 41 29.69 1005 10 16.0934 0 0
12:55 am 00:55 Cloudy with Nearby Thunderstorms 69 20.5 56 13.2 63 63 N 20 31 29.7 1006 10 16.0934 0 0
1:15 am 01:15 Cloudy with Nearby Thunderstorms 68 20 55 12.5 62 62 N 24 39 29.69 1006 7 11.26538 0 0
1:35 am 01:35 Cloudy 67 19.5 52 11.3 59 59 N 20 31 29.73 1007 10 16.0934 0 0
1:55 am 01:55 Cloudy 66 18.7 49 9.5 55 55 N 20 31 29.74 1007 7 11.26538 0 0
2:15 am 02:15 Cloudy 65 18.4 48 8.7 53 53 N 25 41 29.77 1008 10 16.0934 0 0
2:35 am 02:35 Cloudy 64 17.8 47 8.1 53 53 N 17 28 29.79 1009 10 16.0934 0 0
2:55 am 02:55 Cloudy 64 17.5 41 5.1 44 44 N 17 28 29.82 1010 10 16.0934 0 0
3:15 am 03:15 Cloudy 63 17.2 41 5.1 45 45 N 20 31 29.84 1010 10 16.0934 0 0
3:35 am 03:35 Partly Cloudy 62 16.4 41 4.9 47 47 N 18 30 29.83 1010 10 16.0934 0 0
3:55 am 03:55 Clear 61 16 40 4.7 47 47 N 16 26 29.86 1011 10 16.0934 0 0
4:15 am 04:15 Partly Cloudy 61 16 40 4.6 47 47 N 15 24 29.86 1011 10 16.0934 0 0
4:35 am 04:35 Mostly Cloudy 61 16.1 40 4.6 47 47 N 16 26 29.87 1011 10 16.0934 0 0
4:55 am 04:55 Cloudy 61 16 40 4.7 47 47 N 13 20 29.87 1011 10 16.0934 0 0
5:15 am 05:15 Cloudy 60 15.6 41 4.9 49 49 N 13 20 29.87 1012 10 16.0934 0 0
5:35 am 05:35 Cloudy 59 15.2 41 5.2 52 52 N 9 15 29.87 1012 10 16.0934 0 0
5:55 am 05:55 Cloudy 59 14.8 42 5.3 53 53 N 6 9 29.89 1012 10 16.0934 0 0
6:15 am 06:15 Cloudy 58 14.6 43 6 57 57 N 5 7 29.89 1012 10 16.0934 0 0
6:35 am 06:35 Cloudy 58 14.5 43 6.1 57 57 N 6 9 29.91 1013 10 16.0934 0 0
6:55 am 06:55 Mostly Cloudy 57 14 43 5.9 58 58 N 9 15 29.91 1013 10 16.0934 0 0
7:15 am 07:15 Partly Cloudy 57 13.7 42 5.7 59 59 N 7 11 29.93 1013 10 16.0934 0 0
7:35 am 07:35 Sunny 56 13.5 42 5.8 60 60 N 8 13 29.93 1014 10 16.0934 0 0
7:55 am 07:55 Sunny 56 13.2 43 6.2 63 63 N 7 11 29.93 1014 10 16.0934 0 0
8:15 am 08:15 Sunny 56 13.3 44 6.5 64 64 N 9 15 29.93 1014 10 16.0934 0 0
8:35 am 08:35 Sunny 56 13.6 44 6.6 63 63 NNW 9 15 29.93 1013 10 16.0934 0 0
8:55 am 08:55 Sunny 58 14.2 44 6.7 61 61 N 9 15 29.93 1014 10 16.0934 0 0
9:15 am 09:15 Sunny 58 14.6 43 6.3 58 58 N 12 19 29.93 1014 10 16.0934 0 0
9:35 am 09:35 Sunny 59 15.1 44 6.8 58 58 N 10 17 29.93 1013 10 16.0934 0 0
9:55 am 09:55 Sunny 60 15.6 43 5.9 53 53 N 9 15 29.92 1013 10 16.0934 0 0
10:15 am 10:15 Sunny 62 16.4 42 5.7 49 49 NNE 14 22 29.91 1013 10 16.0934 0 0
10:35 am 10:35 Sunny 63 17.3 42 5.7 47 47 N 9 15 29.91 1013 10 16.0934 0 0
10:55 am 10:55 Sunny 65 18.3 42 5.4 43 43 N 12 19 29.9 1012 10 16.0934 0 0
11:15 am 11:15 Sunny 66 18.7 41 4.8 40 40 NNE 14 22 29.89 1012 10 16.0934 0 0
11:35 am 11:35 Sunny 66 19.1 41 4.8 39 39 NNE 13 20 29.89 1012 10 16.0934 0 0
11:55 am 11:55 Sunny 68 19.8 40 4.6 37 37 NNE 14 22 29.88 1012 10 16.0934 0 0
12:15 pm 12:15 Sunny 69 20.6 40 4.3 34 34 NE 15 24 29.88 1012 10 16.0934 0 0
12:35 pm 12:35 Sunny 70 21.1 39 3.8 32 32 NE 9 15 29.87 1012 10 16.0934 0 0
12:55 pm 12:55 Sunny 71 21.5 38 3.3 30 30 NE 13 20 29.86 1011 10 16.0934 0 0
1:15 pm 13:15 Sunny 71 21.9 39 3.7 30 30 ENE 7 11 29.86 1011 10 16.0934 0 0
1:35 pm 13:35 Sunny 72 22.1 38 3.6 30 30 NNE 8 13 29.84 1011 10 16.0934 0 0
1:55 pm 13:55 Sunny 72 22.1 38 3.2 29 29 E 7 11 29.84 1011 10 16.0934 0 0
2:15 pm 14:15 Sunny 73 22.6 36 2.4 27 27 E 8 13 29.84 1011 10 16.0934 0 0
2:35 pm 14:35 Sunny 73 22.9 37 2.7 27 27 ESE 9 15 29.83 1010 10 16.0934 0 0
2:55 pm 14:55 Sunny 73 22.7 38 3.4 28 28 E 3 6 29.82 1010 10 16.0934 0 0
3:15 pm 15:15 Sunny 74 23.2 37 2.8 26 26 ESE 9 15 29.81 1009 10 16.0934 0 0
3:35 pm 15:35 Sunny 74 23.2 37 2.7 26 26 E 10 17 29.8 1009 10 16.0934 0 0
3:55 pm 15:55 Sunny 74 23.3 38 3.3 27 27 E 10 17 29.79 1009 10 16.0934 0 0
4:15 pm 16:15 Sunny 75 23.7 38 3.3 26 26 ESE 12 19 29.79 1009 10 16.0934 0 0
4:35 pm 16:35 Sunny 74 23.4 38 3.5 27 27 E 10 17 29.78 1009 10 16.0934 0 0
4:55 pm 16:55 Sunny 75 23.9 39 3.8 27 27 E 13 20 29.77 1008 10 16.0934 0 0
5:15 pm 17:15 Sunny 74 23.6 38 3.6 27 27 ESE 13 20 29.77 1008 10 16.0934 0 0
5:35 pm 17:35 Sunny 74 23.4 38 3.6 28 28 ESE 10 17 29.76 1008 10 16.0934 0 0
5:55 pm 17:55 Sunny 74 23.1 39 4.1 29 29 E 13 20 29.77 1008 10 16.0934 0 0
6:15 pm 18:15 Sunny 73 23 41 5.2 32 32 ESE 14 22 29.77 1008 10 16.0934 0 0
6:35 pm 18:35 Sunny 73 22.6 42 5.6 33 33 ESE 16 26 29.77 1008 10 16.0934 0 0
6:55 pm 18:55 Sunny 72 22.1 42 5.4 34 34 ESE 13 20 29.77 1008 10 16.0934 0 0
7:15 pm 19:15 Sunny 71 21.6 42 5.3 35 35 ESE 12 19 29.79 1009 10 16.0934 0 0
7:35 pm 19:35 Sunny 70 21 42 5.8 37 37 ESE 9 15 29.79 1009 10 16.0934 0 0
7:55 pm 19:55 Sunny 68 20.2 44 6.5 41 41 ESE 8 13 29.81 1010 10 16.0934 0 0
8:15 pm 20:15 Clear 67 19.4 45 7.1 45 45 ESE 6 9 29.82 1010 10 16.0934 0 0
8:35 pm 20:35 Clear 63 17.1 47 8.5 57 57 E 5 7 29.85 1011 10 16.0934 0 0
8:55 pm 20:55 Clear 61 16.2 48 9.1 63 63 Calm 29.88 1012 10 16.0934 0 0
9:15 pm 21:15 Clear 59 15.1 51 10.4 74 74 E 5 7 29.89 1012 10 16.0934 0 0
9:35 pm 21:35 Clear 60 15.8 50 9.8 68 68 NE 3 6 29.89 1012 10 16.0934 0 0
9:55 pm 21:55 Clear 59 15.1 50 10 72 72 ENE 6 9 29.9 1012 10 16.0934 0 0
10:15 pm 22:15 Clear 61 16.1 47 8.5 61 61 E 5 7 29.9 1012 10 16.0934 0 0
10:35 pm 22:35 Clear 62 16.5 46 8 57 57 E 5 7 29.89 1012 10 16.0934 0 0
10:55 pm 22:55 Clear 60 15.6 47 8.3 62 62 E 7 11 29.89 1012 10 16.0934 0 0
11:15 pm 23:15 Clear 61 16.2 47 8.1 59 59 ESE 10 17 29.88 1012 10 16.0934 0 0
11:35 pm 23:35 Clear 61 16.2 47 8.2 59 59 ESE 10 17 29.89 1012 10 16.0934 0 0
11:55 pm 23:55 Clear 60 15.8 47 8.1 60 60 ESE 12 19 29.88 1012 10 16.0934 0 0

Powered by AerisWeather